GFSNGP_700_temp_237.txt.gz
Temp
-4 -3 -3 -2 -2 -1 -3 -2 -4 -1 -1 -0 0 0 1 0 1 1 2 2 2 2 1 1 1 1 1 1 1 1 1 1 0 -0 -0 -1 -1 -1 -1 -1 -2 -2 -3 -3
-5 -4 -4 -3 -3 -3 -3 -2 -2 -2 -1 -0 1 1 1 1 1 2 2 2 2 2 1 1 1 1 0 1 1 0 0 -0 -0 -1 -1 -1 -2 -1 -2 -2 -3 -3 -4 -4
-6 -5 -5 -5 -4 -3 -3 -2 -2 -3 -0 -0 1 1 2 1 1 1 1 2 2 1 0 0 1 1 0 0 0 0 1 0 -1 -1 -1 -2 -2 -2 -3 -3 -4 -4 -5 -5
-7 -7 -6 -4 -3 -3 -2 -2 -1 -1 -0 0 0 1 1 2 1 1 2 2 2 0 -0 -0 -1 -1 -1 -1 -2 -1 -1 -1 -2 -1 -2 -3 -3 -3 -4 -4 -5 -5 -5 -6
-7 -6 -5 -4 -4 -3 -2 -1 -1 -2 -1 -0 -0 0 2 2 2 1 1 1 1 1 -1 -1 -1 -1 -2 -1 -2 -2 -2 -2 -2 -3 -3 -4 -4 -4 -5 -5 -6 -6 -6 -6
-7 -7 -6 -4 -4 -3 -3 -3 -2 -1 -1 -0 0 0 3 1 2 1 1 1 1 -0 -1 -2 -1 -2 -2 -2 -2 -3 -2 -3 -3 -3 -4 -4 -5 -5 -6 -6 -6 -7 -7 -7
-8 -7 -6 -6 -5 -4 -5 -3 -2 -2 -1 0 -0 -0 1 1 1 1 1 1 0 -1 -1 -1 -1 -2 -3 -3 -3 -3 -3 -4 -4 -4 -5 -6 -6 -6 -6 -7 -7 -7 -7 -7
-8 -8 -7 -8 -6 -6 -5 -3 -3 -3 -2 -1 -1 -1 -0 0 0 -0 -0 -0 -1 -2 -2 -3 -3 -3 -3 -3 -3 -3 -4 -4 -4 -5 -6 -6 -6 -7 -7 -8 -8 -8 -8 -8
-10 -11 -12 -11 -10 -9 -8 -5 -4 -3 -3 -2 -2 -1 -1 -0 -0 -1 -1 -1 -1 -3 -4 -4 -4 -4 -4 -4 -4 -4 -4 -5 -5 -6 -6 -7 -8 -8 -8 -8 -8 -8 -8 -8
-12 -12 -11 -11 -11 -10 -9 -7 -5 -5 -4 -3 -3 -2 -2 -1 -1 -1 -1 -2 -4 -4 -4 -4 -4 -5 -5 -5 -5 -5 -5 -6 -6 -7 -8 -8 -9 -9 -9 -9 -9 -8 -8 -9
-13 -12 -12 -12 -12 -10 -10 -8 -7 -5 -6 -5 -4 -3 -3 -2 -2 -2 -3 -4 -5 -5 -5 -5 -5 -5 -5 -5 -5 -5 -6 -7 -8 -9 -9 -10 -10 -10 -9 -9 -9 -9 -9 -9
-16 -15 -14 -14 -13 -12 -12 -10 -8 -7 -6 -6 -6 -5 -4 -4 -3 -3 -5 -5 -6 -6 -6 -6 -6 -6 -6 -6 -6 -8 -8 -9 -9 -10 -10 -11 -10 -10 -10 -10 -10 -10 -10 -11
-17 -16 -16 -16 -15 -14 -13 -12 -11 -10 -8 -7 -7 -6 -6 -5 -6 -6 -6 -6 -6 -7 -7 -7 -7 -8 -8 -8 -9 -9 -10 -10 -11 -11 -11 -10 -10 -11 -11 -10 -10 -11 -11 -11
-17 -17 -16 -16 -15 -14 -14 -14 -13 -12 -11 -11 -9 -8 -7 -7 -7 -7 -7 -8 -8 -8 -8 -8 -8 -8 -9 -10 -11 -11 -11 -12 -12 -11 -10 -11 -11 -11 -11 -12 -12 -12 -12 -12
-18 -17 -17 -17 -16 -15 -15 -15 -14 -14 -14 -13 -14 -13 -13 -12 -11 -11 -12 -12 -12 -12 -12 -12 -11 -11 -11 -12 -12 -12 -12 -11 -11 -11 -11 -11 -11 -12 -12 -12 -12 -13 -13 -13
-18 -18 -17 -17 -16 -16 -15 -15 -15 -15 -15 -14 -14 -13 -14 -14 -14 -13 -13 -13 -13 -13 -13 -13 -13 -12 -13 -12 -12 -12 -12 -11 -11 -11 -11 -12 -12 -12 -13 -13 -13 -13 -13 -13
-18 -18 -17 -17 -17 -16 -16 -16 -15 -15 -15 -15 -15 -15 -14 -14 -14 -14 -14 -14 -14 -13 -13 -13 -13 -13 -13 -13 -12 -12 -12 -12 -12 -12 -12 -13 -13 -13 -13 -14 -14 -14 -14 -14
-18 -18 -18 -17 -17 -17 -17 -16 -16 -16 -15 -15 -15 -15 -15 -15 -14 -14 -14 -14 -14 -15 -15 -14 -14 -13 -13 -13 -13 -13 -13 -13 -13 -13 -13 -13 -14 -14 -14 -14 -14 -14 -15 -15
-19 -18 -18 -18 -17 -17 -17 -16 -16 -16 -16 -15 -15 -15 -15 -15 -15 -15 -16 -16 -16 -15 -14 -14 -13 -13 -13 -13 -13 -14 -14 -14 -14 -14 -14 -14 -14 -14 -15 -15 -15 -15 -16 -16
-19 -19 -18 -18 -18 -18 -17 -17 -17 -16 -16 -16 -16 -16 -16 -17 -16 -15 -15 -14 -14 -14 -14 -14 -14 -14 -14 -14 -14 -14 -14 -14 -15 -15 -15 -15 -15 -15 -15 -15 -16 -16 -16 -16
-19 -19 -19 -18 -18 -18 -18 -17 -17 -17 -16 -16 -16 -16 -16 -15 -15 -15 -15 -14 -15 -15 -15 -15 -15 -14 -14 -14 -14 -14 -15 -15 -15 -15 -16 -16 -16 -16 -16 -16 -16 -17 -17 -17
-19 -19 -19 -18 -18 -18 -18 -18 -17 -17 -17 -16 -16 -16 -16 -16 -15 -15 -15 -15 -15 -15 -15 -15 -15 -15 -15 -15 -15 -15 -15 -16 -16 -16 -16 -17 -16 -16 -17 -17 -17 -17 -18 -18
-20 -19 -19 -19 -19 -19 -18 -18 -18 -18 -17 -17 -17 -17 -16 -16 -16 -16 -16 -16 -16 -16 -16 -16 -16 -16 -16 -16 -16 -16 -16 -16 -17 -17 -17 -17 -17 -17 -17 -17 -18 -18 -18 -19
-20 -20 -20 -20 -20 -19 -19 -19 -19 -18 -18 -18 -18 -18 -18 -17 -17 -17 -17 -17 -17 -17 -16 -16 -16 -16 -16 -16 -17 -17 -17 -17 -17 -17 -17 -17 -17 -18 -18 -18 -18 -18 -19 -19
-21 -21 -21 -21 -20 -20 -20 -20 -19 -19 -19 -19 -18 -18 -18 -18 -18 -18 -17 -17 -17 -17 -17 -17 -17 -17 -17 -18 -18 -18 -18 -18 -18 -18 -18 -18 -18 -18 -18 -19 -19 -19 -19 -19
-21 -21 -21 -21 -21 -21 -21 -21 -20 -20 -20 -20 -19 -19 -19 -19 -19 -19 -18 -18 -18 -18 -18 -18 -18 -18 -18 -18 -18 -18 -18 -18 -18 -18 -18 -19 -19 -19 -19 -19 -19 -19 -20 -20
-21 -21 -21 -21 -21 -21 -21 -21 -21 -21 -21 -20 -20 -20 -19 -19 -19 -19 -19 -18 -18 -18 -18 -18 -18 -18 -18 -18 -18 -18 -18 -19 -19 -19 -19 -19 -19 -19 -19 -19 -20 -20 -20 -20

GFSNGP_700_temp_240.txt.gz
Temp
-5 -4 -4 -4 -4 -4 -4 -3 -4 -2 -2 -2 -1 -1 0 0 1 1 1 2 2 2 2 2 2 2 3 2 0 1 1 1 0 0 -0 1 -2 -2 -2 -2 -1 -1 -1 -2
-6 -5 -5 -5 -4 -4 -4 -5 -4 -4 -3 -3 -1 -0 1 1 0 0 0 1 2 2 1 1 1 1 1 0 1 0 1 0 -0 0 0 -2 -2 -2 -2 -1 -2 -2 -2 -2
-6 -5 -5 -5 -5 -5 -4 -4 -4 -4 -2 -2 -1 -0 1 1 1 1 0 0 1 1 1 1 0 0 1 -0 -1 -1 -1 -1 -1 -1 -2 -3 -2 -2 -2 -2 -3 -3 -3 -3
-7 -6 -6 -4 -4 -4 -4 -3 -3 -3 -2 -2 -2 -1 -0 1 2 2 1 1 1 1 0 -0 -1 -1 -1 -1 -1 -1 -1 -2 -2 -2 -2 -3 -2 -2 -2 -3 -3 -4 -4 -4
-8 -6 -5 -5 -5 -5 -5 -4 -4 -4 -3 -2 -2 -1 0 0 0 2 1 1 0 0 0 -0 -1 -1 -2 -3 -2 -3 -3 -3 -4 -4 -3 -2 -2 -3 -3 -4 -4 -4 -5 -5
-8 -7 -6 -6 -5 -5 -5 -6 -5 -4 -3 -3 -2 -1 -0 -0 0 1 1 1 1 1 0 -0 -1 -1 -2 -3 -3 -3 -4 -4 -4 -4 -3 -4 -4 -4 -4 -5 -5 -5 -6 -6
-9 -8 -7 -7 -6 -6 -7 -6 -5 -5 -5 -4 -3 -2 -1 -1 -1 0 0 1 0 0 -1 -1 -1 -2 -2 -3 -3 -4 -4 -4 -4 -4 -4 -4 -5 -5 -5 -5 -6 -6 -7 -7
-8 -8 -8 -10 -9 -8 -9 -9 -6 -4 -4 -4 -4 -3 -2 -1 -1 -0 -0 -1 -0 -1 -1 -2 -2 -3 -3 -4 -4 -4 -4 -5 -5 -5 -5 -5 -4 -5 -6 -7 -7 -7 -8 -8
-12 -14 -14 -13 -11 -12 -11 -9 -8 -7 -4 -5 -5 -4 -2 -2 -2 -2 -1 -1 -2 -2 -2 -3 -4 -4 -4 -4 -5 -5 -5 -6 -6 -5 -5 -5 -5 -6 -7 -7 -8 -8 -8 -8
-14 -15 -14 -13 -13 -12 -11 -10 -8 -8 -7 -6 -5 -4 -4 -3 -3 -3 -2 -2 -2 -3 -4 -4 -5 -5 -6 -5 -6 -6 -6 -6 -6 -6 -6 -6 -7 -7 -8 -8 -8 -9 -9 -9
-16 -15 -14 -14 -14 -12 -12 -11 -10 -8 -8 -7 -6 -5 -5 -4 -3 -4 -3 -4 -4 -5 -6 -6 -6 -6 -6 -6 -6 -6 -7 -7 -7 -7 -8 -8 -8 -8 -8 -9 -9 -9 -10 -9
-17 -17 -17 -16 -16 -15 -13 -12 -12 -11 -9 -8 -7 -6 -6 -6 -5 -6 -5 -5 -6 -6 -6 -6 -7 -7 -7 -7 -8 -8 -8 -8 -8 -9 -9 -8 -9 -9 -9 -10 -10 -10 -10 -9
-18 -18 -18 -17 -17 -16 -15 -14 -13 -13 -11 -10 -9 -7 -7 -7 -6 -6 -6 -7 -7 -7 -7 -7 -7 -8 -8 -8 -8 -9 -10 -10 -9 -9 -9 -10 -10 -10 -10 -10 -10 -10 -9 -10
-18 -18 -18 -17 -16 -17 -16 -15 -15 -15 -14 -13 -11 -11 -10 -8 -8 -7 -7 -7 -8 -8 -8 -9 -9 -9 -9 -10 -10 -10 -9 -10 -10 -10 -10 -11 -11 -11 -11 -10 -10 -10 -10 -11
-18 -18 -18 -18 -18 -17 -16 -16 -15 -15 -15 -15 -14 -14 -13 -13 -12 -12 -12 -12 -11 -11 -12 -12 -11 -11 -11 -11 -12 -11 -11 -11 -11 -11 -12 -11 -11 -11 -11 -11 -11 -11 -11 -11
-19 -19 -18 -18 -17 -17 -16 -16 -16 -16 -16 -16 -16 -15 -15 -14 -14 -14 -14 -14 -14 -14 -13 -13 -13 -13 -13 -13 -13 -12 -12 -12 -12 -12 -12 -12 -12 -11 -12 -12 -12 -12 -12 -13
-19 -18 -18 -18 -17 -17 -16 -16 -16 -16 -16 -16 -15 -15 -16 -15 -15 -14 -14 -14 -14 -14 -14 -14 -14 -14 -13 -13 -14 -14 -13 -13 -12 -12 -12 -12 -12 -12 -12 -13 -13 -13 -13 -13
-19 -18 -18 -18 -18 -17 -17 -17 -17 -16 -16 -16 -16 -16 -16 -16 -15 -15 -15 -15 -15 -14 -14 -14 -13 -14 -15 -15 -15 -14 -13 -12 -12 -12 -12 -13 -13 -13 -13 -13 -14 -14 -14 -14
-19 -19 -19 -18 -18 -18 -17 -17 -17 -17 -16 -16 -16 -16 -15 -15 -15 -15 -15 -15 -14 -14 -14 -14 -15 -16 -16 -14 -14 -13 -13 -13 -13 -13 -13 -13 -13 -14 -14 -14 -14 -15 -15 -15
-19 -19 -19 -19 -18 -18 -18 -18 -17 -17 -17 -16 -16 -16 -16 -16 -16 -16 -16 -16 -16 -16 -16 -16 -15 -14 -14 -14 -14 -14 -14 -13 -14 -14 -14 -14 -14 -15 -15 -15 -15 -15 -15 -16
-20 -19 -19 -19 -19 -19 -18 -18 -18 -17 -17 -17 -17 -17 -17 -17 -17 -17 -16 -16 -15 -15 -15 -15 -15 -15 -14 -14 -14 -14 -14 -14 -14 -15 -15 -15 -15 -15 -15 -16 -16 -16 -16 -16
-20 -20 -20 -20 -19 -19 -19 -18 -18 -18 -17 -17 -17 -17 -16 -16 -16 -16 -16 -16 -15 -15 -15 -15 -15 -15 -15 -15 -15 -15 -15 -15 -15 -15 -16 -16 -16 -16 -16 -16 -16 -16 -17 -17
-21 -20 -20 -20 -20 -20 -20 -19 -19 -19 -18 -18 -18 -17 -17 -17 -17 -16 -16 -16 -16 -16 -15 -15 -15 -15 -15 -15 -15 -15 -15 -15 -16 -16 -16 -16 -16 -16 -17 -17 -17 -17 -18 -18
-21 -21 -21 -21 -20 -20 -20 -20 -20 -19 -19 -19 -19 -18 -18 -18 -18 -18 -17 -17 -17 -16 -16 -16 -16 -16 -16 -16 -16 -16 -16 -16 -17 -17 -17 -17 -17 -17 -17 -17 -18 -18 -18 -18
-21 -21 -21 -21 -21 -21 -21 -20 -20 -20 -20 -20 -19 -19 -19 -19 -18 -18 -18 -18 -17 -17 -17 -17 -17 -17 -17 -17 -17 -17 -17 -17 -18 -18 -18 -18 -18 -18 -18 -18 -18 -18 -19 -19
-21 -21 -21 -21 -21 -21 -21 -21 -21 -21 -21 -20 -20 -20 -19 -19 -19 -19 -18 -18 -18 -18 -18 -17 -17 -17 -18 -18 -18 -18 -18 -18 -18 -18 -18 -18 -18 -18 -18 -19 -19 -19 -19 -19
-21 -21 -21 -21 -21 -21 -21 -21 -21 -21 -21 -21 -20 -20 -20 -19 -19 -19 -19 -18 -18 -18 -18 -18 -18 -18 -18 -18 -18 -18 -18 -18 -18 -19 -19 -19 -19 -19 -19 -19 -19 -19 -19 -20

GFSNGP_700_temp_246.txt.gz
Temp
-5 -4 -4 -4 -5 -4 -4 -4 -3 -2 -2 -2 -2 -1 -1 -0 -0 -0 -0 0 0 1 1 1 2 2 2 2 2 2 2 2 3 3 2 2 1 0 0 0 0 -0 -1 -1
-6 -5 -5 -4 -4 -5 -4 -4 -4 -4 -4 -3 -2 -2 -2 -2 -2 -3 -1 -0 -0 0 1 1 1 2 2 2 2 2 3 2 2 3 2 1 0 1 0 -1 -1 -1 -1 -1
-7 -6 -6 -6 -5 -4 -4 -5 -4 -5 -4 -4 -3 -3 -3 -3 -3 -3 -3 -1 -1 -0 1 1 1 1 1 2 2 2 3 3 2 2 1 -1 0 1 0 -1 -0 -2 -3 -4
-8 -7 -7 -6 -5 -5 -5 -5 -5 -5 -5 -4 -4 -4 -4 -3 -3 -3 -3 -2 -1 -1 0 1 1 1 1 1 2 2 2 2 2 1 -0 -0 1 1 -2 -1 -2 -3 -4 -5
-9 -8 -7 -6 -7 -7 -6 -6 -6 -5 -5 -5 -4 -4 -4 -3 -3 -3 -3 -2 -2 -1 -0 0 1 1 1 1 1 1 -0 -1 -2 -1 -1 -1 -0 -0 -2 -3 -3 -4 -4 -5
-11 -10 -8 -9 -9 -9 -8 -9 -8 -7 -6 -5 -4 -4 -4 -4 -4 -4 -4 -4 -3 -2 -1 -0 0 0 0 0 0 -0 -2 -1 -1 -2 -2 -2 -3 -3 -4 -4 -4 -5 -5 -5
-11 -10 -9 -11 -10 -10 -10 -11 -9 -8 -7 -6 -6 -5 -5 -5 -4 -4 -4 -4 -3 -2 -1 -1 -0 -1 -0 -0 -1 -2 -2 -2 -2 -2 -3 -4 -4 -4 -5 -5 -5 -5 -6 -6
-13 -12 -12 -14 -13 -12 -14 -13 -11 -10 -9 -8 -7 -6 -6 -6 -5 -4 -4 -4 -4 -3 -2 -2 -1 -1 -1 -2 -2 -3 -2 -2 -3 -4 -4 -4 -4 -5 -5 -6 -6 -6 -7 -7
-16 -17 -17 -17 -16 -16 -15 -14 -13 -12 -11 -10 -8 -7 -6 -5 -5 -5 -5 -4 -4 -3 -3 -2 -2 -2 -3 -3 -4 -4 -3 -3 -4 -4 -4 -5 -5 -5 -6 -6 -6 -7 -7 -7
-17 -17 -17 -17 -17 -16 -15 -14 -14 -13 -12 -10 -9 -8 -7 -6 -6 -6 -5 -5 -4 -4 -4 -3 -3 -2 -3 -5 -4 -4 -4 -4 -4 -4 -5 -5 -5 -6 -6 -6 -7 -7 -8 -8
-18 -18 -17 -17 -17 -16 -16 -15 -14 -13 -12 -11 -9 -8 -7 -7 -6 -6 -6 -6 -5 -4 -4 -3 -3 -4 -4 -5 -4 -4 -5 -4 -5 -4 -5 -6 -6 -6 -7 -8 -9 -8 -7 -8
-19 -19 -19 -18 -18 -17 -17 -16 -15 -14 -14 -13 -11 -10 -9 -9 -8 -7 -7 -7 -6 -5 -4 -4 -4 -5 -6 -5 -4 -4 -4 -5 -5 -5 -6 -6 -7 -8 -8 -8 -8 -8 -8 -8
-19 -19 -19 -19 -19 -18 -18 -17 -17 -16 -16 -15 -15 -13 -13 -11 -10 -9 -8 -9 -8 -7 -6 -6 -6 -7 -6 -6 -6 -6 -7 -6 -7 -7 -8 -9 -9 -9 -9 -8 -8 -9 -9 -8
-19 -19 -19 -19 -19 -18 -18 -18 -18 -17 -16 -16 -16 -15 -15 -14 -12 -11 -10 -10 -10 -10 -9 -8 -8 -8 -8 -8 -8 -8 -8 -7 -8 -8 -9 -8 -9 -9 -9 -9 -10 -10 -9 -10
-20 -19 -19 -19 -19 -19 -18 -18 -18 -17 -17 -17 -17 -16 -17 -16 -15 -14 -13 -13 -13 -13 -12 -12 -11 -12 -11 -11 -10 -10 -10 -10 -10 -11 -11 -10 -10 -10 -11 -11 -10 -11 -11 -11
-20 -19 -19 -19 -19 -19 -18 -18 -18 -17 -17 -17 -17 -17 -17 -17 -17 -16 -16 -16 -16 -16 -15 -15 -14 -13 -13 -14 -14 -13 -13 -13 -12 -12 -11 -11 -12 -12 -11 -11 -11 -12 -11 -11
-20 -20 -20 -19 -19 -19 -18 -18 -18 -18 -17 -17 -17 -17 -17 -17 -17 -17 -17 -17 -16 -16 -16 -15 -15 -15 -14 -14 -14 -14 -13 -13 -13 -13 -13 -13 -12 -12 -11 -13 -13 -12 -11 -11
-20 -20 -20 -19 -19 -19 -19 -18 -18 -18 -18 -17 -17 -17 -17 -17 -17 -17 -17 -16 -16 -16 -16 -16 -16 -15 -15 -15 -15 -14 -14 -14 -13 -13 -13 -12 -12 -14 -14 -13 -12 -12 -12 -12
-20 -20 -20 -20 -19 -19 -19 -19 -19 -18 -18 -18 -18 -18 -18 -17 -17 -17 -17 -17 -16 -16 -16 -16 -16 -16 -15 -15 -15 -15 -14 -14 -13 -13 -13 -15 -15 -14 -13 -13 -13 -13 -13 -13
-20 -20 -20 -20 -20 -20 -19 -19 -19 -19 -19 -18 -18 -18 -18 -18 -17 -17 -17 -17 -17 -16 -16 -16 -16 -16 -16 -15 -15 -15 -14 -14 -15 -15 -16 -15 -14 -14 -13 -13 -13 -13 -13 -14
-21 -21 -20 -20 -20 -20 -20 -19 -19 -19 -19 -18 -18 -18 -18 -18 -17 -17 -17 -17 -17 -17 -16 -16 -16 -16 -16 -15 -15 -15 -15 -16 -16 -16 -15 -14 -14 -14 -14 -14 -14 -14 -14 -15
-21 -21 -21 -21 -21 -20 -20 -20 -20 -20 -19 -19 -19 -18 -18 -18 -18 -18 -18 -17 -17 -16 -17 -16 -16 -16 -16 -17 -17 -17 -16 -15 -15 -15 -14 -14 -15 -15 -15 -15 -15 -15 -15 -15
-21 -21 -21 -21 -21 -21 -21 -21 -20 -20 -20 -20 -19 -19 -18 -18 -18 -18 -18 -17 -17 -17 -17 -17 -17 -16 -16 -16 -16 -16 -15 -15 -15 -15 -15 -15 -15 -15 -15 -15 -16 -16 -16 -16
-22 -22 -21 -21 -21 -21 -21 -21 -21 -21 -21 -20 -20 -20 -19 -19 -19 -19 -18 -18 -18 -17 -17 -17 -17 -17 -16 -16 -16 -16 -16 -16 -16 -16 -16 -16 -16 -16 -16 -16 -17 -17 -17 -17
-22 -22 -22 -22 -22 -21 -21 -21 -21 -21 -21 -21 -20 -20 -20 -20 -19 -19 -19 -18 -18 -18 -18 -18 -18 -17 -17 -17 -17 -17 -17 -17 -17 -17 -17 -17 -17 -17 -17 -17 -17 -17 -17 -17
-22 -22 -22 -22 -22 -22 -21 -21 -21 -21 -21 -21 -21 -21 -21 -20 -20 -20 -19 -19 -19 -18 -18 -18 -18 -18 -18 -18 -17 -17 -17 -17 -18 -18 -17 -18 -18 -18 -18 -18 -18 -18 -18 -18
-22 -22 -22 -22 -22 -22 -22 -21 -21 -21 -21 -21 -21 -21 -21 -21 -21 -20 -20 -20 -19 -19 -19 -19 -19 -19 -18 -18 -18 -18 -18 -18 -18 -18 -19 -18 -18 -18 -18 -18 -18 -18 -18 -18

GFSNGP_700_temp_252.txt.gz
Temp
-6 -6 -6 -4 -3 -3 -4 -3 -4 -3 -3 -1 -2 -2 -3 -3 -2 -2 -2 -2 -2 -1 -1 -1 -0 0 0 0 0 1 1 1 1 1 1 1 1 1 1 1 1 1 -1 -1
-7 -7 -7 -6 -5 -5 -5 -5 -4 -4 -4 -3 -2 -4 -3 -3 -2 -3 -3 -3 -3 -3 -2 -1 -1 -1 -0 0 0 1 1 1 1 1 1 1 1 1 1 1 0 -0 -0 -0
-10 -8 -7 -7 -7 -6 -6 -6 -6 -6 -5 -4 -4 -4 -4 -3 -3 -3 -3 -3 -3 -3 -2 -2 -1 -1 -0 0 0 0 1 1 1 1 1 1 1 1 1 0 -1 -1 -0 -0
-12 -10 -10 -10 -10 -8 -8 -9 -9 -9 -7 -6 -6 -6 -6 -5 -4 -4 -3 -3 -3 -3 -2 -2 -2 -2 -1 -1 0 0 1 0 1 1 1 1 1 1 1 1 -1 -2 -1 -1
-12 -11 -10 -11 -12 -12 -11 -12 -11 -10 -10 -9 -7 -7 -6 -6 -5 -5 -5 -4 -4 -4 -4 -3 -3 -3 -3 -2 -1 -0 0 1 0 0 1 1 1 1 1 1 -1 -2 -2 -1
-13 -12 -11 -15 -13 -14 -13 -14 -13 -13 -12 -10 -10 -9 -8 -7 -6 -6 -5 -5 -5 -5 -4 -4 -3 -3 -3 -2 -2 -1 -0 -0 0 -0 -0 -1 -1 -1 -0 -1 -3 -3 -3 -3
-14 -13 -15 -15 -14 -14 -14 -15 -14 -14 -14 -12 -11 -10 -9 -8 -7 -7 -7 -7 -6 -5 -5 -4 -4 -3 -3 -2 -2 -1 -1 -1 -0 -1 -1 -4 -3 -2 -3 -3 -3 -3 -3 -3
-16 -16 -17 -16 -15 -15 -17 -16 -15 -14 -13 -12 -12 -11 -10 -9 -8 -8 -8 -7 -6 -5 -6 -5 -5 -4 -4 -3 -2 -1 -1 -1 -1 -2 -3 -4 -4 -3 -3 -3 -3 -4 -4 -5
-17 -18 -19 -18 -18 -18 -17 -16 -15 -14 -14 -13 -12 -11 -10 -9 -9 -8 -9 -9 -8 -7 -6 -5 -5 -4 -4 -4 -3 -2 -2 -2 -2 -4 -4 -3 -4 -3 -3 -4 -5 -5 -5 -5
-18 -19 -19 -19 -18 -18 -17 -17 -17 -16 -15 -14 -13 -12 -11 -11 -10 -10 -9 -8 -7 -7 -6 -6 -6 -5 -4 -4 -4 -4 -2 -2 -3 -5 -4 -3 -4 -4 -4 -5 -5 -5 -5 -5
-18 -18 -18 -18 -19 -18 -18 -18 -17 -17 -17 -16 -15 -14 -12 -11 -10 -10 -10 -9 -8 -7 -7 -6 -6 -6 -5 -4 -4 -4 -4 -3 -5 -5 -5 -4 -5 -5 -5 -5 -5 -5 -6 -6
-19 -19 -19 -19 -19 -18 -18 -18 -17 -17 -17 -17 -16 -15 -14 -14 -12 -11 -9 -10 -9 -8 -8 -7 -7 -7 -6 -5 -4 -5 -4 -5 -6 -5 -5 -5 -6 -5 -6 -7 -7 -7 -7 -7
-20 -20 -19 -19 -19 -19 -19 -18 -18 -18 -17 -17 -17 -17 -16 -15 -15 -13 -12 -10 -9 -9 -9 -8 -7 -7 -7 -6 -6 -6 -6 -7 -6 -6 -6 -7 -7 -7 -7 -8 -8 -8 -7 -8
-20 -21 -20 -20 -20 -20 -19 -19 -18 -18 -18 -17 -17 -17 -17 -17 -16 -15 -14 -13 -12 -12 -11 -10 -9 -9 -8 -8 -8 -8 -8 -8 -7 -7 -7 -8 -8 -8 -8 -8 -7 -8 -10 -11
-21 -20 -20 -20 -20 -19 -19 -19 -19 -19 -19 -18 -18 -17 -17 -17 -17 -17 -16 -16 -15 -14 -13 -12 -12 -11 -10 -10 -10 -9 -9 -9 -9 -9 -9 -10 -10 -9 -9 -9 -10 -10 -11 -10
-21 -21 -20 -20 -20 -20 -19 -19 -19 -19 -19 -18 -18 -18 -18 -17 -17 -17 -17 -17 -17 -17 -16 -15 -15 -14 -13 -13 -12 -12 -11 -11 -12 -12 -12 -12 -12 -12 -12 -12 -12 -12 -12 -12
-21 -21 -21 -21 -20 -20 -20 -19 -19 -19 -19 -18 -18 -18 -18 -18 -18 -18 -18 -18 -18 -18 -17 -17 -16 -16 -16 -16 -15 -15 -15 -15 -15 -14 -14 -13 -13 -13 -13 -13 -13 -12 -12 -12
-21 -21 -21 -21 -20 -20 -20 -20 -19 -19 -19 -19 -19 -18 -18 -18 -18 -18 -18 -18 -17 -18 -17 -17 -17 -17 -16 -16 -16 -16 -15 -15 -15 -15 -14 -14 -14 -14 -14 -13 -13 -13 -13 -12
-21 -21 -21 -21 -21 -21 -20 -20 -20 -20 -20 -19 -19 -19 -19 -19 -19 -18 -18 -18 -18 -18 -17 -17 -17 -17 -17 -17 -16 -16 -16 -16 -15 -15 -15 -15 -15 -14 -14 -14 -13 -13 -13 -13
-22 -21 -21 -21 -21 -21 -21 -21 -20 -20 -20 -20 -20 -19 -19 -19 -19 -19 -19 -18 -18 -18 -18 -18 -17 -17 -17 -16 -16 -16 -16 -16 -16 -15 -15 -15 -15 -15 -15 -14 -14 -14 -14 -14
-22 -22 -22 -22 -22 -21 -21 -21 -21 -21 -20 -20 -20 -20 -20 -19 -19 -19 -19 -19 -19 -18 -18 -18 -18 -18 -17 -17 -17 -17 -17 -17 -16 -16 -16 -16 -16 -15 -15 -15 -15 -15 -16 -16
-22 -22 -22 -22 -22 -22 -21 -21 -21 -21 -21 -21 -21 -20 -20 -20 -19 -19 -19 -19 -19 -19 -19 -18 -18 -18 -18 -18 -18 -18 -17 -17 -17 -17 -16 -16 -16 -16 -16 -16 -16 -16 -16 -16
-22 -22 -22 -22 -22 -22 -22 -22 -21 -21 -21 -21 -21 -21 -20 -20 -20 -20 -19 -19 -19 -19 -19 -19 -18 -18 -18 -18 -18 -18 -17 -17 -17 -17 -17 -17 -16 -16 -16 -17 -17 -16 -16 -16
-22 -22 -22 -22 -22 -22 -22 -22 -22 -22 -22 -21 -21 -21 -21 -21 -20 -20 -20 -19 -19 -19 -19 -19 -18 -18 -18 -18 -18 -18 -18 -17 -17 -17 -17 -17 -17 -17 -17 -17 -16 -16 -16 -16
-23 -23 -22 -22 -22 -22 -22 -22 -22 -22 -22 -22 -22 -21 -21 -21 -21 -20 -20 -20 -19 -19 -19 -19 -19 -19 -19 -19 -19 -18 -18 -18 -18 -18 -17 -17 -17 -17 -17 -17 -17 -17 -17 -17
-23 -23 -23 -23 -23 -22 -22 -22 -22 -22 -22 -22 -21 -21 -22 -21 -21 -21 -21 -20 -20 -20 -19 -19 -19 -19 -19 -19 -19 -18 -18 -18 -18 -18 -18 -18 -17 -17 -17 -17 -18 -18 -18 -17
-23 -23 -23 -23 -23 -23 -22 -22 -22 -22 -22 -22 -22 -22 -21 -21 -22 -21 -21 -21 -21 -21 -20 -20 -20 -20 -19 -19 -19 -19 -19 -18 -18 -18 -18 -18 -18 -18 -18 -18 -18 -18 -18 -18